Home > Weather > Río Gallegos > Past weeks

Flag for Argentina Past Weather in Río Gallegos, Santa Cruz, Argentina — Yesterday and Last 2 Weeks

Now
28 °F

Clear.


Feels Like: 23 °F
Forecast: 32 / 39 °F
Wind: 5 mph from West

Location: Rio Gallegos Aerodrome

Current Time: May 31, 2016 at 7:17:47 AM

Latest Report: May 31, 2016 at 6:00 AM


Visibility: 10 mi

Pressure: 30.24 "Hg

Humidity: 93%

Dew Point: 27 °F

Location of Río GallegosLocation

Past Weather in Río Gallegos — Graph

°F

Río Gallegos Temperature Yesterday

Maximum temperature yesterday: 48 °F (at 4:00 PM)
Minimum temperature yesterday: 28 °F (at 7:00 AM)
Average temperature yesterday: 37 °F

High & Low Weather Summary for the Past Weeks

 TemperatureHumidityPressure
High52 °F (May 21, 3:00 PM)100% (May 17, 3:20 AM)30.69 "Hg (May 17, 3:20 AM)
Low16 °F (May 24, 10:00 AM)37% (May 21, 4:00 PM)29.77 "Hg (May 21, 6:00 AM)
Average37 °F79%30.15 "Hg
* Reported May 16 5:00 AM — May 31 5:00 AM, Río Gallegos, Weather by CustomWeather, © 2016

Note: Actual official high and low records may vary slightly from our data, if they occured in-between our weather recording intervals... More about our weather records

Advertising

Río Gallegos Weather History for the Previous 24 Hours

Scroll right to see more
 ConditionsComfort  
Time TempWeatherWind HumidityBarometerVisibility
5:00 AM
Tue, May 31
27 °FClear.5 mph93%30.24 "Hg10 mi
4:00 AM28 °FFog.5 mph93%30.24 "Hg1 mi
3:00 AM30 °FLight fog.5 mph93%30.24 "Hg1 mi
2:00 AM30 °FLight fog.3 mph93%30.24 "Hg1 mi
1:00 AM30 °FLight fog.5 mph100%30.24 "Hg1 mi
12:00 AM32 °FFog.5 mph93%30.24 "Hg1 mi
11:00 PM
Mon, May 30
30 °FFog.5 mph100%30.24 "Hg1 mi
10:00 PM30 °FLight fog.3 mph100%30.24 "Hg0 mi
8:00 PM34 °FClear.5 mph93%30.21 "Hg10 mi
7:00 PM37 °FClear.6 mph93%30.21 "Hg10 mi
6:00 PM41 °FClear.6 mph81%30.21 "Hg10 mi
5:00 PM46 °FClear.5 mph76%30.18 "Hg10 mi
4:00 PM48 °FSunny.7 mph71%30.18 "Hg10 mi
3:00 PM46 °FSunny.8 mph76%30.18 "Hg10 mi
2:00 PM45 °FSunny.9 mph76%30.18 "Hg10 mi
1:00 PM41 °FSunny.8 mph87%30.18 "Hg10 mi
12:00 PM37 °FSunny.12 mph87%30.18 "Hg10 mi
11:00 AM34 °FThunderstorms. Sunny.9 mph81%30.15 "Hg10 mi
10:00 AM30 °FSunny.3 mph93%30.15 "Hg10 mi
9:00 AM32 °FSunny.10 mph93%30.12 "Hg10 mi
8:00 AM30 °FClear.6 mph93%30.12 "Hg10 mi
7:00 AM28 °FClear.3 mph100%30.12 "Hg10 mi
Weather by CustomWeather, © 2016

See weather overviewHow to use our weather pages